TimeEST,TemperatureF,Dew PointF,Humidity,Sea Level PressureIn,VisibilityMPH,Wind Direction,Wind SpeedMPH,Gust SpeedMPH,PrecipitationIn,Events,Conditions,WindDirDegrees,DateUTC
12:15 AM,24.8,8.6,50,30.23,10.0,NW,16.1,24.2,N/A,,Clear,320,2013-02-18 05:15:00
12:35 AM,24.8,8.6,50,30.24,10.0,NW,17.3,24.2,N/A,,Clear,320,2013-02-18 05:35:00
12:55 AM,24.8,8.6,50,30.25,10.0,NW,16.1,19.6,N/A,,Clear,310,2013-02-18 05:55:00
1:15 AM,24.8,8.6,50,30.26,10.0,NW,9.2,-,N/A,,Clear,310,2013-02-18 06:15:00
1:35 AM,24.8,10.4,54,30.26,10.0,WNW,10.4,18.4,N/A,,Clear,300,2013-02-18 06:35:00
1:55 AM,23.0,10.4,59,30.26,10.0,NW,12.7,-,N/A,,Clear,310,2013-02-18 06:55:00
2:15 AM,23.0,10.4,59,30.27,10.0,WNW,10.4,-,N/A,,Clear,300,2013-02-18 07:15:00
2:35 AM,23.0,10.4,59,30.27,10.0,NW,12.7,18.4,N/A,,Clear,310,2013-02-18 07:35:00
2:55 AM,23.0,8.6,54,30.28,10.0,West,8.1,-,N/A,,Clear,280,2013-02-18 07:55:00
3:15 AM,23.0,8.6,54,30.28,10.0,Calm,Calm,-,N/A,,Clear,0,2013-02-18 08:15:00
3:35 AM,21.2,10.4,63,30.28,10.0,WNW,5.8,-,N/A,,Clear,300,2013-02-18 08:35:00
3:55 AM,21.2,10.4,63,30.28,10.0,Calm,Calm,-,N/A,,Clear,0,2013-02-18 08:55:00
4:15 AM,21.2,10.4,63,30.28,10.0,Calm,Calm,-,N/A,,Clear,0,2013-02-18 09:15:00
4:35 AM,17.6,12.2,79,30.30,10.0,SSE,4.6,-,N/A,,Clear,160,2013-02-18 09:35:00
4:55 AM,17.6,12.2,79,30.31,10.0,WSW,3.5,-,N/A,,Clear,240,2013-02-18 09:55:00
5:15 AM,17.6,12.2,79,30.32,10.0,Calm,Calm,-,N/A,,Clear,0,2013-02-18 10:15:00
5:35 AM,15.8,12.2,86,30.33,10.0,SSE,5.8,-,N/A,,Clear,150,2013-02-18 10:35:00
5:55 AM,19.4,10.4,68,30.33,10.0,West,4.6,-,N/A,,Clear,280,2013-02-18 10:55:00
6:15 AM,17.6,12.2,79,30.34,10.0,Calm,Calm,-,N/A,,Clear,0,2013-02-18 11:15:00
6:35 AM,17.6,12.2,79,30.35,10.0,Calm,Calm,-,N/A,,Clear,0,2013-02-18 11:35:00
6:55 AM,15.8,12.2,86,30.36,10.0,SE,6.9,-,N/A,,Clear,130,2013-02-18 11:55:00
7:45 AM,17.6,15.8,93,30.38,10.0,Calm,Calm,-,N/A,,Clear,0,2013-02-18 12:45:00
8:45 AM,26.6,12.2,55,30.40,10.0,Calm,Calm,-,N/A,,Clear,0,2013-02-18 13:45:00
9:05 AM,26.6,12.2,55,30.40,10.0,North,6.9,-,N/A,,Clear,360,2013-02-18 14:05:00
9:50 AM,30.2,10.4,44,30.39,10.0,NNW,5.8,-,N/A,,Clear,340,2013-02-18 14:50:00
10:50 AM,33.8,8.6,35,30.38,10.0,Calm,Calm,-,N/A,,Clear,0,2013-02-18 15:50:00
11:55 AM,37.4,8.6,30,30.35,10.0,Calm,Calm,-,N/A,,Clear,0,2013-02-18 16:55:00
12:55 PM,37.4,10.4,33,30.32,10.0,South,4.6,-,N/A,,Clear,170,2013-02-18 17:55:00
1:45 PM,39.2,12.2,33,30.28,10.0,South,6.9,-,N/A,,Clear,170,2013-02-18 18:45:00
2:45 PM,42.8,10.4,27,30.27,10.0,SSW,6.9,-,N/A,,Clear,200,2013-02-18 19:45:00
3:50 PM,44.6,8.6,23,30.24,10.0,SSW,8.1,-,N/A,,Clear,200,2013-02-18 20:50:00
4:45 PM,44.6,10.4,25,30.23,10.0,South,8.1,-,N/A,,Clear,180,2013-02-18 21:45:00
6:45 PM,33.8,15.8,48,30.24,10.0,SE,4.6,-,N/A,,Clear,140,2013-02-18 23:45:00
7:55 PM,35.6,12.2,38,30.23,10.0,Calm,Calm,-,N/A,,Clear,0,2013-02-19 00:55:00
8:15 PM,35.6,12.2,38,30.22,10.0,South,5.8,-,N/A,,Clear,170,2013-02-19 01:15:00
8:35 PM,35.6,12.2,38,30.21,10.0,South,5.8,-,N/A,,Clear,180,2013-02-19 01:35:00
8:55 PM,33.8,14.0,44,30.21,10.0,SSE,4.6,-,N/A,,Clear,160,2013-02-19 01:55:00
9:15 PM,35.6,14.0,41,30.20,10.0,SSE,4.6,-,N/A,,Clear,150,2013-02-19 02:15:00
9:35 PM,32.0,21.2,64,30.20,10.0,Calm,Calm,-,N/A,,Clear,0,2013-02-19 02:35:00
9:55 PM,30.2,21.2,69,30.19,10.0,Calm,Calm,-,N/A,,Clear,0,2013-02-19 02:55:00
10:15 PM,32.0,19.4,60,30.18,10.0,South,3.5,-,N/A,,Clear,190,2013-02-19 03:15:00
10:35 PM,35.6,17.6,48,30.18,10.0,South,4.6,-,N/A,,Clear,190,2013-02-19 03:35:00
10:55 PM,35.6,17.6,48,30.18,10.0,SSE,5.8,-,N/A,,Clear,160,2013-02-19 03:55:00
11:15 PM,35.6,17.6,48,30.17,10.0,South,5.8,-,N/A,,Clear,180,2013-02-19 04:15:00
11:35 PM,35.6,19.4,52,30.16,10.0,South,4.6,-,N/A,,Clear,180,2013-02-19 04:35:00
11:55 PM,35.6,19.4,52,30.16,10.0,South,5.8,-,N/A,,Clear,170,2013-02-19 04:55:00